Staples, MN

12:53 PM CDT on July 20, 2017 (GMT -0500)
Staples Municipal

Weather History for KSAZ - April, 2014

Change the Weather History Date:

Friday, April 4, 2014

  Actual Average Record
Temperature  
Mean Temperature 34 °F -  
Max Temperature 42 °F 46 °F 71 °F (2005)
Min Temperature 24 °F 26 °F 12 °F (2007)
Degree Days  
Heating Degree Days 31    
Moisture  
Dew Point 24 °F    
Average Humidity 76    
Maximum Humidity 100    
Minimum Humidity 45    
Precipitation  
Precipitation 0.00 in - - ()
Sea Level Pressure  
Sea Level Pressure 29.92 in    
Wind  
Wind Speed 10 mph (NNW)    
Max Wind Speed 20 mph    
Max Gust Speed 26 mph    
Visibility 10 miles    
Events Snow    
Averages and records for this station are not official NWS values.
T = Trace of Precipitation, MM = Missing Value Source: NWS Daily Summary

Daily Weather History Graph

Daily Weather History Graph

Search for Another Location

Airport or City:

Trip Planner

Search our weather history database for the weather conditions in past years. The results will help you decide how hot, cold, wet, or windy it might be!

Date:

Astronomy

Apr. 04, 2014 Rise Set
Actual Time 6:52 AM CDT 7:52 PM CDT
Civil Twilight 6:22 AM CDT 8:22 PM CDT
Nautical Twilight 5:45 AM CDT 8:59 PM CDT
Astronomical Twilight 5:07 AM CDT 9:38 PM CDT
Moon 9:58 AM CDT (4/4) 12:23 AM CDT (4/4)
Length of Visible Light 14h 00m
Length of Day
12h 59m
Waxing Crescent, 25% of the Moon is Illuminated
Apr 4
Waxing Crescent
Apr 7
First Quarter
Apr 15
Full
Apr 22
Last Quarter
Apr 29
New

Hourly Weather History & Observations

Time (CDT) Temp. Windchill Dew Point Humidity Pressure Visibility Wind Dir Wind Speed Gust Speed Precip Events Conditions
12:13 AM 26.6 °F 22.6 °F 24.8 °F 93% 29.89 in 10.0 mi NNE 3.5 mph - N/A   Overcast
12:33 AM 26.6 °F 20.0 °F 24.8 °F 93% 29.89 in 10.0 mi North 5.8 mph - N/A   Overcast
12:53 AM 26.6 °F 19.1 °F 24.8 °F 93% 29.89 in 10.0 mi North 6.9 mph - N/A   Overcast
1:13 AM 28.4 °F 19.7 °F 24.8 °F 86% 29.88 in 10.0 mi North 9.2 mph - N/A   Overcast
1:34 AM 26.6 °F 21.2 °F 23.0 °F 86% 29.87 in 10.0 mi NNE 4.6 mph - N/A   Overcast
1:53 AM 26.6 °F 17.5 °F 24.8 °F 93% 29.87 in 10.0 mi North 9.2 mph - N/A   Overcast
2:14 AM 26.6 °F 18.2 °F 24.8 °F 93% 29.86 in 10.0 mi North 8.1 mph - N/A   Overcast
2:33 AM 26.6 °F 17.5 °F 24.8 °F 93% 29.86 in 10.0 mi North 9.2 mph - N/A   Overcast
2:54 AM 26.6 °F 17.5 °F 24.8 °F 93% 29.85 in 10.0 mi North 9.2 mph - N/A   Overcast
3:13 AM 26.6 °F 16.2 °F 24.8 °F 93% 29.84 in 10.0 mi North 11.5 mph - N/A   Overcast
3:33 AM 26.6 °F 16.8 °F 24.8 °F 93% 29.84 in 10.0 mi North 10.4 mph - N/A   Overcast
3:54 AM 26.6 °F 17.5 °F 23.0 °F 86% 29.84 in 10.0 mi North 9.2 mph - N/A   Overcast
4:13 AM 26.6 °F 17.5 °F 23.0 °F 86% 29.84 in 10.0 mi North 9.2 mph - N/A   Overcast
4:33 AM 26.6 °F 15.7 °F 23.0 °F 86% 29.85 in 10.0 mi North 12.7 mph - N/A   Overcast
4:53 AM 26.6 °F 16.2 °F 23.0 °F 86% 29.85 in 10.0 mi North 11.5 mph - N/A   Overcast
5:13 AM 26.6 °F 16.2 °F 23.0 °F 86% 29.85 in 10.0 mi North 11.5 mph - N/A   Overcast
5:34 AM 28.4 °F 18.5 °F 23.0 °F 80% 29.85 in 10.0 mi North 11.5 mph 16.1 mph N/A   Overcast
5:53 AM 28.4 °F 19.7 °F 24.8 °F 86% 29.86 in 10.0 mi North 9.2 mph - N/A   Overcast
6:13 AM 28.4 °F 19.1 °F 24.8 °F 86% 29.86 in 10.0 mi North 10.4 mph - N/A   Overcast
6:34 AM 28.4 °F 19.1 °F 24.8 °F 86% 29.86 in 10.0 mi North 10.4 mph - N/A   Overcast
6:53 AM 28.4 °F 19.7 °F 24.8 °F 86% 29.88 in 10.0 mi North 9.2 mph - N/A   Overcast
7:14 AM 28.4 °F 19.1 °F 24.8 °F 86% 29.88 in 10.0 mi North 10.4 mph - N/A   Overcast
7:33 AM 26.6 °F 16.2 °F 23.0 °F 86% 29.89 in 10.0 mi North 11.5 mph - N/A   Overcast
7:53 AM 26.6 °F 17.5 °F 23.0 °F 86% 29.89 in 10.0 mi NNW 9.2 mph - N/A   Overcast
8:14 AM 26.6 °F 18.2 °F 23.0 °F 86% 29.90 in 10.0 mi NNW 8.1 mph - N/A   Overcast
8:33 AM 28.4 °F 18.0 °F 23.0 °F 80% 29.90 in 10.0 mi NNW 12.7 mph 17.3 mph N/A   Overcast
8:53 AM 28.4 °F 17.5 °F 23.0 °F 80% 29.90 in 10.0 mi North 13.8 mph - N/A   Mostly Cloudy
9:14 AM 28.4 °F 16.6 °F 23.0 °F 80% 29.89 in 5.0 mi North 16.1 mph 19.6 mph N/A   Haze
9:33 AM 28.4 °F 18.0 °F 23.0 °F 80% 29.90 in 2.0 mi NNW 12.7 mph 24.2 mph N/A Snow Light Snow
9:54 AM 30.2 °F 19.3 °F 23.0 °F 75% 29.90 in 5.0 mi North 15.0 mph 20.7 mph N/A Snow Light Snow
10:13 AM 30.2 °F 18.1 °F 21.2 °F 69% 29.90 in 5.0 mi North 18.4 mph 26.5 mph N/A Snow Light Snow
10:33 AM 33.8 °F 22.8 °F 23.0 °F 65% 29.90 in 7.0 mi NNW 18.4 mph 23.0 mph N/A   Scattered Clouds
10:54 AM 33.8 °F 23.9 °F 23.0 °F 65% 29.90 in 10.0 mi North 15.0 mph 24.2 mph N/A   Scattered Clouds
11:13 AM 35.6 °F 26.6 °F 23.0 °F 60% 29.90 in 10.0 mi North 13.8 mph 18.4 mph N/A   Scattered Clouds
11:33 AM 35.6 °F 25.2 °F 23.0 °F 60% 29.90 in 10.0 mi North 18.4 mph 23.0 mph N/A   Mostly Cloudy
11:54 AM 35.6 °F 25.9 °F 23.0 °F 60% 29.90 in 10.0 mi North 16.1 mph 21.9 mph N/A   Mostly Cloudy
12:13 PM 35.6 °F 25.2 °F 21.2 °F 56% 29.90 in 10.0 mi North 18.4 mph 25.3 mph N/A   Scattered Clouds
12:33 PM 35.6 °F 24.8 °F 23.0 °F 60% 29.91 in 10.0 mi NNW 19.6 mph 25.3 mph N/A   Scattered Clouds
12:54 PM 35.6 °F 25.5 °F 21.2 °F 56% 29.91 in 10.0 mi NNW 17.3 mph 23.0 mph N/A   Mostly Cloudy
1:13 PM 37.4 °F 28.2 °F 23.0 °F 56% 29.90 in 10.0 mi NNW 16.1 mph 20.7 mph N/A   Overcast
1:54 PM 37.4 °F 27.5 °F 21.2 °F 52% 29.91 in 10.0 mi North 18.4 mph - N/A   Mostly Cloudy
2:13 PM 39.2 °F 30.8 °F 21.2 °F 49% 29.91 in 10.0 mi NNW 15.0 mph - N/A   Overcast
2:33 PM 37.4 °F 29.8 °F 21.2 °F 52% 29.91 in 10.0 mi NNW 11.5 mph 16.1 mph N/A   Overcast
2:54 PM 39.2 °F 30.2 °F 21.2 °F 49% 29.91 in 10.0 mi North 17.3 mph - N/A   Mostly Cloudy
3:13 PM 39.2 °F 31.2 °F 21.2 °F 49% 29.92 in 10.0 mi NNW 13.8 mph - N/A   Mostly Cloudy
3:33 PM 39.2 °F 31.6 °F 21.2 °F 49% 29.92 in 10.0 mi NNW 12.7 mph - N/A   Scattered Clouds
3:54 PM 41.0 °F 35.2 °F 21.2 °F 45% 29.92 in 10.0 mi NW 9.2 mph - N/A   Scattered Clouds
4:13 PM 39.2 °F 33.0 °F 21.2 °F 49% 29.93 in 10.0 mi NW 9.2 mph - N/A   Scattered Clouds
4:33 PM 39.2 °F 33.6 °F 23.0 °F 52% 29.93 in 10.0 mi NNW 8.1 mph - N/A   Scattered Clouds
4:54 PM 42.8 °F 37.0 °F 24.8 °F 49% 29.94 in 10.0 mi NW 10.4 mph - N/A   Mostly Cloudy
5:13 PM 41.0 °F 33.9 °F 24.8 °F 53% 29.94 in 10.0 mi WNW 12.7 mph - N/A   Overcast
5:33 PM 39.2 °F 31.2 °F 26.6 °F 61% 29.95 in 10.0 mi WNW 13.8 mph - N/A   Mostly Cloudy
5:54 PM 37.4 °F 29.3 °F 26.6 °F 65% 29.96 in 10.0 mi WNW 12.7 mph 20.7 mph N/A   Mostly Cloudy
6:13 PM 37.4 °F 28.5 °F 24.8 °F 60% 29.97 in 10.0 mi West 15.0 mph - N/A   Overcast
6:33 PM 35.6 °F 28.0 °F 26.6 °F 70% 29.98 in 10.0 mi WNW 10.4 mph - N/A   Overcast
6:54 PM 35.6 °F 26.6 °F 24.8 °F 65% 29.98 in 10.0 mi WNW 13.8 mph - N/A   Mostly Cloudy
7:13 PM 33.8 °F 27.0 °F 24.8 °F 70% 29.98 in 10.0 mi WNW 8.1 mph - N/A   Scattered Clouds
7:33 PM 33.8 °F 25.8 °F 26.6 °F 75% 29.99 in 10.0 mi WNW 10.4 mph - N/A   Clear
7:54 PM 32.0 °F 24.2 °F 26.6 °F 80% 29.99 in 10.0 mi WNW 9.2 mph - N/A   Clear
8:13 PM 32.0 °F 24.2 °F 26.6 °F 80% 30.00 in 10.0 mi WNW 9.2 mph - N/A   Clear
8:34 PM 30.2 °F 22.6 °F 26.6 °F 86% 30.01 in 10.0 mi West 8.1 mph - N/A   Clear
8:53 PM 30.2 °F 21.9 °F 26.6 °F 86% 30.01 in 10.0 mi West 9.2 mph - N/A   Clear
9:13 PM 30.2 °F 21.3 °F 26.6 °F 86% 30.02 in 10.0 mi West 10.4 mph - N/A   Clear
9:34 PM 28.4 °F 19.7 °F 26.6 °F 93% 30.02 in 10.0 mi West 9.2 mph - N/A   Clear
9:53 PM 28.4 °F 19.7 °F 26.6 °F 93% 30.02 in 10.0 mi WNW 9.2 mph - N/A   Clear
10:13 PM 28.4 °F 19.7 °F 24.8 °F 86% 30.02 in 10.0 mi WNW 9.2 mph - N/A   Clear
10:34 PM 28.4 °F 20.4 °F 24.8 °F 86% 30.02 in 10.0 mi WNW 8.1 mph - N/A   Clear
10:53 PM 28.4 °F 21.2 °F 24.8 °F 86% 30.02 in 10.0 mi WNW 6.9 mph - N/A   Clear
11:13 PM 26.6 °F 19.1 °F 24.8 °F 93% 30.02 in 10.0 mi WNW 6.9 mph - N/A   Clear
11:34 PM 26.6 °F 21.2 °F 24.8 °F 93% 30.02 in 10.0 mi WNW 4.6 mph - N/A   Clear
11:53 PM 24.8 °F 20.5 °F 24.8 °F 100% 30.01 in 10.0 mi NW 3.5 mph - N/A   Clear